Regional Weather Roundup
Issued by NWS

Home | Current Version | Previous Version | Graphics & Text | Print | Product List | Glossary On
Versions: 1 2 3 4 5 6 7 8 9 10 11 12 13 14 15 16 17 18 19 20 21 22 23 24 25 26 27 28 29 30 31 32 33 34 35 36 37 38 39 40 41 42 43 44 45 46 47 48 49 50
000
ASUS43 KOAX 190310
RWRNE

WEATHER ROUNDUP FOR NEBRASKA
NATIONAL WEATHER SERVICE OMAHA NE
900 PM CST SUN FEB 18 2018

NOTES: SATELLITE DATA IS BEING USED TO AUGMENT CLOUD COVER ABOVE
       12000 FEET.
       "FAIR" INDICATES FEW OR NO CLOUDS BELOW 12,000 FEET WITH NO
       SIGNIFICANT WEATHER AND/OR OBSTRUCTIONS TO VISIBILITY.


NEZ001>004-019>022-054>056-190400-
NEBRASKA PANHANDLE

CITY           SKY/WX    TMP DP  RH WIND       PRES   REMARKS
SCOTTSBLUFF    CLOUDY    15   7  70 NE25G36   29.72F WCI  -4
ALLIANCE       FLURRIES  13   9  84 N24G37    29.71F WCI  -7
CHADRON        LGT SNOW  10   5  80 N14G25    29.88R WCI  -6
GORDON         FLURRIES  11   6  81 N18       29.80R WCI  -7
KIMBALL        CLOUDY    18  17  95 N20G25    29.61R FOG     WCI   2
SIDNEY         CLOUDY    17  14  88 N25G32    29.62R WCI  -1
$$

NEZ057>060-069>072-079>082-190400-
SOUTHWEST NEBRASKA

CITY           SKY/WX    TMP DP  RH WIND       PRES   REMARKS
NORTH PLATTE   CLOUDY    25  20  81 N25G39    29.61R WCI   9
IMPERIAL       CLOUDY    26  24  92 N26G36    29.58R WCI  10
LEXINGTON      CLOUDY    31  26  84 N24G32    29.60R WCI  17
MCCOOK           N/A     31  28  89 NE23G37   29.53R WCI  18
OGALLALA       CLOUDY    24  19  82 N28G33    29.63R WCI   7
$$

NEZ005>010-023>029-035>040-094-190400-
NORTH CENTRAL NEBRASKA

CITY           SKY/WX    TMP DP  RH WIND       PRES   REMARKS
VALENTINE      LGT SNOW  18  12  77 N23G35    29.81S WCI   0
AINSWORTH      CLOUDY    19  17  95 N24G37    29.76S WCI   1
BROKEN BOW     CLOUDY    26  22  84 N31G38    29.63R WCI   9
O`NEILL        CLOUDY    23  20  90 N26G37    29.72F WCI   6
ORD            CLOUDY    28  24  85 N24G33    29.66R WCI  14
THEDFORD       CLOUDY    19  17  90 N17G32    29.70R WCI   4
$$

NEZ041-046>049-061>064-073>077-083>087-190400-
SOUTH CENTRAL NEBRASKA

CITY           SKY/WX    TMP DP  RH WIND       PRES   REMARKS
GRAND ISLAND   CLOUDY    32  26  78 N25G33    29.62R WCI  19
AURORA         CLOUDY    33  28  80 N21       29.61R WCI  21
HASTINGS       CLOUDY    35  28  75 NE21G30   29.58S WCI  24
HEBRON         CLOUDY    50  43  78 S9        29.53S
HOLDREGE       CLOUDY    31  28  86 N23G30    29.57R WCI  18
KEARNEY        CLOUDY    30  27  88 N28G33    29.60R WCI  15
YORK           CLOUDY    36  32  87 N20G26    29.62R WCI  25
$$

NEZ011>018-030>034-042>045-190400-
NORTHEAST NEBRASKA

CITY           SKY/WX    TMP DP  RH WIND       PRES   REMARKS
NORFOLK        CLOUDY    29  25  85 N17G26    29.67S WCI  17
ALBION         CLOUDY    30  26  83 N22       29.65F WCI  17
BLAIR          CLEAR     47  39  75 S13       29.60S
COLUMBUS       CLEAR     32  28  85 N22       29.65R WCI  19
FREMONT        MOCLDY    36  31  83 N10G17    29.65R WCI  28
TEKAMAH        MOCLDY    35  30  82 NW13      29.65R WCI  26
WAYNE          CLEAR     30  29  96 NW15G22   29.68R WCI  19
$$

NEZ050>053-065>068-078-088>093-190400-
SOUTHEAST NEBRASKA

CITY           SKY/WX    TMP DP  RH WIND       PRES   REMARKS
LINCOLN        CLOUDY    45  39  79 S6        29.61R
OMAHA EPPLEY   CLEAR     44  37  76 S12       29.62R
BEATRICE       CLOUDY    48  43  82 S9        29.58S
FALLS CITY     CLOUDY    52  40  63 S13       29.64S
NEBRASKA CITY  CLOUDY    47  40  75 S6        29.63S
PLATTSMOUTH    CLOUDY    47  40  76 S8G16     29.62S
$$

NEZ044-045-051>053-067-190400-
OMAHA AREA

CITY           SKY/WX    TMP DP  RH WIND       PRES   REMARKS
OMAHA EPPLEY   CLEAR     44  37  76 S12       29.62R
BLAIR          CLEAR     47  39  75 S13       29.60S
FREMONT        MOCLDY    36  31  83 N10G17    29.65R WCI  28
MILLARD        CLOUDY    46  39  78 SE7       29.62S
OFFUTT AFB     CLOUDY    42  36  80 E5        29.62R
PLATTSMOUTH    CLOUDY    47  40  76 S8G16     29.62S
WAHOO          MOCLDY    40  33  78 NW20G25   29.63R WCI  30
$$




USA.gov is the U.S. government's official web portal to all federal, state and local government web resources and services.